N65537 KLGB-NONE

Flight info

Callsign N65537
Flight time N/A
Altitude VFR
Route VFR S
Aircraft P180/L-VGD/C

Departure

Time 2026-04-29 04:34
Airport Long Beach International Airport (KLGB)

Arrival

Time N/A
Airport NONE
Time Latitude Longitude Altitude Speed Heading
2026-04-29 04:24 33.81234 -118.15426 37 ft 0 kts 90°
2026-04-29 04:28 33.81234 -118.15424 37 ft 1 kts 78°
2026-04-29 04:29 33.81280 -118.15410 37 ft 12 kts 39°
2026-04-29 04:29 33.81310 -118.15286 37 ft 19 kts 90°
2026-04-29 04:29 33.81311 -118.15102 37 ft 24 kts 90°
2026-04-29 04:29 33.81310 -118.14924 37 ft 18 kts 87°
2026-04-29 04:30 33.81305 -118.14757 36 ft 22 kts 113°
2026-04-29 04:30 33.81204 -118.14615 36 ft 26 kts 133°
2026-04-29 04:30 33.80985 -118.14340 37 ft 28 kts 135°
2026-04-29 04:31 33.80863 -118.14191 37 ft 11 kts 137°
2026-04-29 04:31 33.80845 -118.14166 37 ft 12 kts 118°
2026-04-29 04:31 33.80844 -118.14143 37 ft 0 kts 76°
2026-04-29 04:33 33.80899 -118.14098 38 ft 20 kts
2026-04-29 04:34 33.81210 -118.14447 36 ft 132 kts 314°
2026-04-29 04:34 33.82052 -118.15447 392 ft 166 kts 315°
2026-04-29 04:34 33.82866 -118.16437 987 ft 166 kts 306°
2026-04-29 04:34 33.83107 -118.17638 1467 ft 149 kts 258°
2026-04-29 04:35 33.82412 -118.18532 1691 ft 158 kts 195°
2026-04-29 04:35 33.81336 -118.18634 2087 ft 158 kts 179°
2026-04-29 04:35 33.80300 -118.18625 2250 ft 137 kts 188°
2026-04-29 04:35 33.79336 -118.18811 2159 ft 149 kts 190°
2026-04-29 04:36 33.78327 -118.19023 2448 ft 150 kts 190°
2026-04-29 04:36 33.77285 -118.19224 2617 ft 142 kts 187°
2026-04-29 04:36 33.76241 -118.19245 2568 ft 160 kts 178°
2026-04-29 04:36 33.75193 -118.19145 2313 ft 185 kts 175°
2026-04-29 04:37 33.73937 -118.18949 2373 ft 167 kts 171°
2026-04-29 04:37 33.72799 -118.18685 1783 ft 178 kts 169°
2026-04-29 04:37 33.71612 -118.18207 1385 ft 174 kts 153°
2026-04-29 04:37 33.70903 -118.17240 1808 ft 158 kts 118°
2026-04-29 04:38 33.70462 -118.16229 2894 ft 116 kts 121°
2026-04-29 04:38 33.70063 -118.15402 2818 ft 116 kts 119°